Regional Weather Roundup
Issued by NWS

Home | Current Version | Previous Version | Text Only | Print | Product List | Glossary Off
Versions: 1 2 3 4 5 6 7 8 9 10 11 12 13 14 15 16 17 18 19 20 21 22 23 24 25 26 27 28 29 30 31 32 33 34 35 36 37 38 39 40 41 42 43 44 45 46 47 48 49 50

000
ASUS43 KLMK 221402
RWRKY
KENTUCKY REGIONAL WEATHER ROUNDUP
NATIONAL WEATHER SERVICE LOUISVILLE KY
1000 AM EDT TUE AUG 22 2017

NOTE "FAIR" INDICATES FEW OR NO CLOUDS BELOW 12,000 FEET
WITH NO SIGNIFICANT WEATHER AND/OR OBSTRUCTIONS TO VISIBILITY.

KYZ001>023-026-027-061>063-070>075-221500-
WESTERN AND SOUTH CENTRAL KENTUCKY

CITY           SKY/WX    TMP DP  RH WIND       PRES   REMARKS
PADUCAH        CLOUDY    82  73  74 SW10      30.00S
HENDERSON      NOT AVBL
OWENSBORO      SUNNY     82  76  81 SW9       29.99S
HOPKINSVILLE   SUNNY     82  73  73 SW15      30.03S
BOWLING GREEN  SUNNY     83  74  74 SW13      30.03F
GLASGOW        MOSUNNY   81  72  72 SW7       30.05F
$$

KYZ024-025-028>034-038-045-046-053-221500-
NORTH CENTRAL KENTUCKY

CITY           SKY/WX    TMP DP  RH WIND       PRES   REMARKS
LOUISVILLE/SDF MOSUNNY   84  73  69 SW14      29.98F HX  90
LOUISVILLE/LOU SUNNY     83  75  77 SW10      29.99F HX  90
FORT KNOX      SUNNY     83  72  70 SW8       29.99F
$$

KYZ035>037-039>044-047>052-055>060-089>105-221500-
NORTHEAST KENTUCKY

CITY           SKY/WX    TMP DP  RH WIND       PRES   REMARKS
LEXINGTON      SUNNY     81  70  69 SW13      30.04F
COVINGTON      PTSUNNY   79  73  82 SW9       29.98S
FRANKFORT      SUNNY     81  70  69 SW13      30.01F
$$

KYZ054-064>069-076>088-106>120-221500-
SOUTHEAST KENTUCKY

CITY           SKY/WX    TMP DP  RH WIND       PRES   REMARKS
JACKSON        SUNNY     77  69  76 VRB5      30.10S
LONDON         MOSUNNY   79  69  71 SW7       30.11S
SOMERSET       NOT AVBL
MIDDLESBORO    SUNNY     72  70  92 CALM      30.14S
MONTICELLO     MOSUNNY   82  73  74 SW12G17   30.11S
$$





USA.gov is the U.S. government's official web portal to all federal, state and local government web resources and services.